sat.trackr.live / text

‹ back to catalog

STARLINK-1372

NORAD 45543 · 2020-025N

PAYLOAD ACTIVE UNKNOWN

§ Identity

Operator
Country
US
Launch date
2020-04-22
Launch site
AFETR
Launch vehicle
Mass (kg)
RCS (m²)

Purposes: comms

External: N2YO · Heavens-Above · Gunter

§ Orbital elements

Epoch: 2026-05-25T04:25:33.716064Z

Period
93.72 min
Inclination
53.1566°
Eccentricity
0.0004298
Mean motion
15.36424986 rev/d
Perigee alt
453.8 km
Apogee alt
459.6 km
Semi-major
6,834.8 km
B*
1.2324e-3
RAAN
104.2197°
Arg perigee
63.8489°
Mean anomaly
296.2956°
Rev number
33,600

§ Raw data

STARLINK-13721 45543U 20025N   26145.18441801  .00044312  00000+0  12324-2 0  99922 45543  53.1566 104.2197 0004298  63.8489 296.2956 15.36424986336003

JSON: /api/v1/satellites/45543 · /tle

For live sub-satellite position, see the globe view (requires WebGL).

§ Visibility from observer

Set your observer location to see the next 7 days of passes ≥ 10°. The values pass through the URL so the page stays shareable.

No JS? Fill the form by hand. The geolocation button needs JavaScript.